Theta_e
299 300 299 299 298 297 296 296 296 296 296 295 296 297 297 297 297 295 297 295 299 301 304 307 308 309 310 311 313 316 318 319 318 318 319 320 320 320 321 322 324 326 327 329 331 332 334 336 337 339 341 342 344 345 345 345 345 343 343 341 340 339 338 337 337 338 336 337 336 336 335 333 332 332 332 333 334 334 334 333 334 333 333 332 330 329 330
298 298 298 298 298 298 298 297 296 296 295 295 297 298 298 299 299 300 300 298 301 304 305 307 309 311 312 313 315 316 317 317 319 318 318 319 320 320 321 322 324 326 328 329 330 332 334 335 337 338 340 341 343 343 344 344 343 343 342 340 339 339 337 336 336 336 337 337 336 335 334 332 332 333 333 333 334 333 331 330 331 332 331 330 328 328 328
295 297 298 297 296 297 297 298 298 297 295 295 296 297 298 301 299 299 301 299 301 305 307 309 310 310 311 312 314 315 317 317 318 318 318 319 320 320 322 323 324 326 327 329 330 332 333 335 337 338 340 341 343 343 343 343 343 343 341 340 340 335 334 335 336 337 336 336 336 334 334 333 333 333 333 334 334 333 331 329 329 330 331 329 328 328 328
291 295 296 296 296 295 295 296 297 296 294 294 295 296 299 298 298 298 299 297 299 305 306 311 308 309 311 312 312 314 315 317 319 319 319 320 320 321 322 324 325 326 328 329 330 331 333 335 337 339 340 341 342 342 342 342 343 343 341 340 335 334 335 336 336 336 335 335 335 334 334 334 333 333 334 333 333 332 331 329 330 330 329 329 328 328 328
290 294 295 295 294 295 292 293 295 296 296 296 296 299 303 302 301 299 297 298 304 307 309 308 308 308 310 311 311 313 315 317 319 319 320 320 321 322 323 325 326 327 328 330 331 332 334 335 337 339 341 341 341 342 342 343 343 342 340 337 334 335 336 337 337 337 334 333 334 334 334 334 334 333 334 333 333 331 329 330 330 329 329 329 328 328 328
288 293 294 294 291 287 287 295 297 299 297 297 297 297 300 302 303 301 302 303 306 307 307 308 308 307 309 312 314 316 317 317 317 319 321 322 323 324 325 326 327 328 329 330 332 333 334 337 339 341 343 342 343 344 343 343 342 341 340 335 335 335 336 336 336 335 334 333 333 334 335 335 334 334 334 333 333 331 331 330 329 329 329 329 329 329 329
290 292 294 291 287 287 295 303 307 302 300 301 300 303 305 307 306 306 306 306 305 307 309 310 311 311 312 314 315 314 316 318 320 320 321 322 323 324 325 326 327 328 328 329 330 332 334 337 340 342 342 343 343 342 342 341 342 341 338 335 335 335 334 335 335 335 334 333 332 334 335 335 334 333 333 333 332 331 331 330 329 328 328 328 329 330 329
292 292 290 286 285 293 303 307 308 312 305 304 305 304 305 307 306 306 305 306 307 307 308 309 312 311 312 314 317 315 316 320 321 321 321 323 324 324 326 327 328 328 329 329 330 332 337 338 340 342 342 343 342 341 342 341 340 339 337 335 335 334 333 334 335 334 332 332 331 332 335 334 333 332 331 332 331 331 331 330 330 330 330 329 329 329 330
291 288 287 289 296 301 304 305 305 306 303 303 301 297 302 307 309 307 305 306 307 309 310 311 313 313 313 312 315 315 317 318 321 322 323 324 325 327 328 329 330 332 333 333 333 334 335 337 338 340 342 342 342 340 339 339 339 337 336 335 334 334 333 333 333 334 333 331 329 331 334 334 333 333 332 332 332 331 330 329 329 328 329 329 330 330 330
291 290 289 292 292 291 296 303 311 311 310 310 307 304 303 308 311 310 307 307 307 309 309 311 312 313 310 308 310 314 316 319 320 320 322 325 328 328 328 330 331 333 335 336 337 335 334 336 337 339 340 341 340 337 336 335 336 335 335 334 334 334 333 333 334 334 334 333 332 333 333 333 333 332 332 332 332 332 330 329 328 329 329 329 330 330 330
292 292 288 285 287 292 298 304 308 312 312 314 308 303 299 307 310 311 308 308 309 311 311 311 312 309 305 305 310 316 314 317 319 319 318 321 323 325 327 330 331 333 335 337 337 336 335 335 335 337 339 338 337 334 333 333 334 334 334 335 335 335 335 334 335 336 336 335 334 333 333 333 332 331 331 332 333 332 331 331 331 331 331 330 330 330 330
294 288 287 290 292 298 304 306 309 312 313 312 304 295 296 303 311 311 310 309 309 309 310 310 309 307 305 306 312 313 316 317 318 319 320 321 321 322 324 331 332 336 339 338 335 334 334 334 334 335 336 336 335 333 332 333 333 333 334 335 336 337 336 336 336 337 337 336 335 334 333 334 333 332 332 332 331 331 331 331 331 331 332 331 329 330 331
295 297 290 291 297 304 307 308 311 311 312 303 296 292 298 309 310 312 311 313 310 310 311 311 309 312 311 311 317 325 321 327 332 335 337 336 336 336 337 336 339 336 335 335 335 334 333 331 331 333 334 333 333 332 331 331 332 333 335 335 335 336 335 336 337 337 337 337 336 336 335 333 332 331 331 332 332 331 331 331 330 330 330 330 330 330 331
296 293 292 292 294 300 308 311 310 312 306 295 291 302 310 309 312 313 315 315 316 317 317 318 317 318 321 327 329 330 331 330 330 333 336 339 340 340 341 340 337 335 333 331 330 328 328 329 330 331 332 332 332 331 330 330 332 333 333 334 335 334 333 334 335 336 336 336 337 336 334 332 330 330 332 332 332 331 331 330 329 330 330 330 330 330 329
297 292 291 292 292 301 310 309 308 310 299 297 305 312 314 316 315 315 315 315 317 320 318 320 321 323 325 326 328 329 331 332 332 332 333 334 334 335 336 336 337 334 331 329 328 328 329 329 330 330 331 332 331 331 329 330 331 332 333 333 333 333 333 333 333 333 334 334 334 333 332 332 330 330 331 331 331 331 330 330 329 329 329 329 328 328 327
296 292 290 290 299 306 312 309 304 309 308 310 311 314 313 316 317 318 318 318 319 320 320 321 323 324 325 326 327 328 329 330 331 331 331 331 332 333 334 334 333 333 330 329 329 329 329 329 329 329 331 331 330 329 327 328 330 332 331 331 332 332 332 332 332 332 333 333 333 333 333 332 331 330 331 331 330 330 329 329 328 328 328 327 326 325 325
298 296 297 303 309 311 312 311 310 311 312 314 314 316 316 317 318 319 320 319 321 321 321 320 320 321 324 325 327 327 327 328 328 328 328 328 329 329 330 332 334 332 331 329 329 329 329 329 328 329 330 330 331 327 326 330 330 330 330 330 330 330 330 330 331 331 333 334 334 333 333 333 331 330 330 330 329 328 329 328 327 327 327 326 325 325 324
309 309 309 312 311 312 314 316 313 312 312 313 314 316 316 316 318 320 320 321 320 320 322 321 321 320 321 323 324 326 327 327 326 328 328 328 329 330 331 331 333 331 331 330 329 329 329 329 329 331 329 330 330 327 329 331 329 329 329 329 329 329 329 329 330 332 332 333 334 334 334 334 333 332 330 329 329 327 327 327 326 326 325 325 324 323 323
301 297 309 309 309 312 313 312 316 314 313 312 313 313 313 314 317 319 321 321 321 322 322 322 322 322 323 323 324 325 326 326 326 327 327 326 326 327 329 332 333 331 331 329 329 330 329 329 329 330 329 330 329 329 330 329 329 329 329 329 330 329 329 330 331 332 331 331 331 331 330 331 331 331 330 329 329 328 327 326 325 325 324 324 324 322 323
302 304 310 313 314 314 315 314 310 311 312 313 313 313 313 314 314 313 314 316 318 322 322 322 322 321 322 322 323 324 325 326 326 326 326 326 326 326 327 331 331 330 330 330 330 330 329 329 330 331 330 329 329 330 330 330 330 330 330 330 329 328 329 330 331 331 330 335 332 329 329 329 328 327 326 327 327 326 326 325 324 323 323 323 323 323 322
308 311 313 313 315 315 316 317 316 316 313 312 312 313 313 313 311 312 313 315 315 318 319 320 320 321 322 322 323 324 324 324 324 325 325 324 325 326 327 329 331 328 329 330 330 330 330 329 330 330 329 328 328 328 329 330 330 330 330 332 331 329 329 330 331 332 331 334 331 329 325 317 311 310 315 318 320 317 312 313 319 323 323 321 322 322 323
303 304 307 312 306 305 310 315 319 316 314 313 311 311 311 311 310 310 310 310 312 313 315 317 319 318 319 322 324 325 324 324 324 324 323 324 324 324 325 328 327 329 331 329 329 330 329 329 329 328 327 327 327 327 326 327 329 330 332 332 331 331 331 330 330 331 330 329 326 324 322 317 313 309 304 298 302 316 313 305 300 296 301 317 315 317 321
299 307 312 310 310 311 311 313 316 316 314 312 310 309 308 308 309 310 310 310 310 310 313 318 322 322 322 322 324 324 324 324 324 324 323 324 324 324 326 327 326 327 327 330 329 329 328 329 328 327 326 325 325 326 327 329 330 331 332 331 331 331 331 330 329 330 328 326 324 321 320 318 316 314 310 305 294 296 302 302 296 292 292 293 295 299 312
305 306 305 306 307 304 305 308 309 311 313 311 309 309 308 308 309 310 309 309 309 308 310 312 318 323 324 325 325 324 323 324 325 325 324 324 325 326 326 326 326 326 327 328 328 328 327 328 327 327 326 326 325 326 327 329 330 329 327 325 323 325 328 330 333 330 328 326 324 320 318 317 317 316 315 313 309 295 294 296 295 292 291 291 292 294 297
306 308 307 306 306 306 308 309 309 310 311 313 311 309 309 308 309 311 310 310 310 310 309 309 311 314 315 316 320 322 323 325 327 330 328 328 330 327 326 326 325 325 326 326 325 326 326 325 325 326 324 324 325 327 328 326 323 321 321 322 322 321 322 324 329 336 329 327 325 321 318 316 316 315 315 316 317 313 305 294 292 292 292 291 291 290 290
313 312 312 310 310 310 311 310 310 310 310 310 309 309 315 319 314 311 310 310 310 311 310 310 310 311 312 312 313 313 315 320 329 329 324 324 324 325 324 325 325 324 323 323 323 324 324 324 323 322 322 323 325 325 324 323 322 323 323 322 321 320 322 325 329 331 329 327 325 322 320 318 317 316 316 317 317 314 311 310 308 299 293 291 291 291 290
316 317 314 308 307 309 311 309 310 314 313 314 312 312 312 310 315 312 311 311 311 311 311 311 311 312 312 312 316 315 314 315 315 316 321 324 326 326 325 325 325 324 323 322 322 323 325 324 322 321 321 323 325 325 324 322 321 320 321 322 321 327 331 332 329 329 327 327 325 322 320 319 320 320 319 318 317 314 313 313 312 312 311 307 297 293 299
313 315 313 305 304 307 311 315 315 316 316 313 314 312 312 313 311 311 310 311 311 312 312 313 312 312 312 311 311 311 312 312 312 313 314 317 322 326 325 325 325 325 323 323 322 326 326 322 321 321 321 323 324 325 324 324 322 321 321 322 323 328 333 333 328 327 326 325 324 323 322 321 321 321 320 319 318 316 313 315 315 313 311 309 311 302 294
308 310 311 314 312 312 312 311 311 309 309 312 312 310 311 310 310 310 309 310 311 312 312 312 314 313 312 312 312 311 312 311 311 312 313 317 323 324 325 325 326 327 324 324 323 325 324 320 319 319 321 323 324 324 324 323 322 322 324 325 327 328 326 324 324 324 323 323 322 323 323 322 321 321 320 320 319 317 315 316 315 314 312 311 311 310 307
306 306 308 307 308 308 307 306 306 307 307 308 309 310 310 310 309 309 309 309 310 310 310 312 312 312 313 312 312 311 312 311 311 312 315 317 319 321 323 325 327 326 325 324 323 324 323 322 321 321 321 322 325 325 325 323 324 325 326 326 326 324 323 323 324 324 323 323 323 324 323 322 322 322 322 321 320 318 315 315 316 315 312 311 311 311 310
308 308 306 306 307 307 305 305 305 306 306 307 308 309 309 310 309 309 309 310 310 310 311 311 312 312 312 312 311 312 313 312 312 313 314 315 316 318 321 325 325 324 324 325 324 323 322 321 320 320 320 323 324 324 324 324 324 324 324 324 324 322 322 322 323 324 324 323 322 321 321 320 320 322 321 321 321 319 318 317 317 316 314 312 312 312 312
307 306 305 305 305 305 305 305 305 305 306 308 308 308 308 309 309 309 310 310 310 311 311 312 312 312 312 312 312 312 312 312 312 313 314 315 315 315 317 320 323 329 325 324 323 323 322 321 321 321 321 323 324 325 325 325 324 324 325 327 324 324 322 322 323 323 325 325 323 321 320 319 318 320 320 321 321 320 319 319 317 316 314 312 312 313 313
304 303 304 304 305 305 304 304 305 306 307 307 306 307 309 309 311 313 312 312 311 312 312 312 313 313 313 313 312 313 313 311 311 313 314 314 315 315 315 320 320 321 322 323 324 323 324 323 323 321 322 323 324 325 325 325 324 324 324 323 323 325 325 321 321 323 325 322 321 319 319 319 319 319 318 319 319 319 319 319 318 317 315 313 313 313 312
305 304 304 304 304 304 305 304 305 306 306 307 308 309 310 311 311 312 313 314 313 313 313 313 313 314 315 314 314 314 314 313 314 315 314 313 314 315 314 316 316 317 319 320 321 321 321 322 321 321 322 322 323 323 322 322 322 322 321 321 322 322 321 322 323 323 322 320 319 321 318 318 317 317 318 319 318 318 318 318 318 317 314 313 311 310 302
307 306 306 307 307 307 308 307 307 307 308 308 309 310 310 311 311 313 317 313 312 312 313 314 314 314 314 314 314 315 314 314 313 313 314 315 315 315 314 315 316 317 316 316 318 319 319 320 320 321 322 323 322 322 322 321 321 320 321 322 323 322 322 323 322 322 321 319 317 316 317 317 317 319 319 317 316 317 317 318 318 316 314 311 310 309 305
309 308 308 308 308 309 308 308 309 309 308 308 309 311 311 312 312 311 312 312 313 314 313 313 314 313 313 313 313 313 313 314 314 314 314 314 314 313 314 315 314 314 314 315 316 317 318 320 325 325 321 322 321 322 321 320 320 320 321 321 321 322 323 322 322 321 319 318 317 317 316 318 319 319 318 316 316 315 315 316 316 316 313 312 310 309 308
310 309 308 309 309 309 309 309 309 309 309 310 311 312 312 312 312 312 314 313 313 313 313 314 313 312 311 312 313 314 315 315 316 315 314 314 314 314 314 314 315 315 315 314 314 316 319 321 327 327 324 322 321 320 325 325 320 320 321 319 320 321 321 320 319 318 317 317 317 317 319 318 316 317 318 315 314 313 314 314 315 313 312 311 310 309 308
309 310 309 309 309 309 310 310 312 311 311 311 312 313 313 312 312 311 311 312 312 313 314 313 313 312 313 314 314 314 315 316 316 314 313 313 313 314 313 314 314 314 314 313 315 319 320 325 325 321 319 320 321 323 327 327 324 319 318 319 320 320 320 318 318 317 316 316 318 317 316 314 315 314 314 313 314 314 314 313 314 312 311 311 309 308 308
309 310 310 311 311 310 310 311 312 312 313 311 311 312 314 313 313 311 311 311 312 314 312 311 312 312 311 312 312 313 314 314 314 313 313 314 315 313 313 313 313 315 315 317 317 319 325 323 321 318 319 319 321 324 329 329 324 317 318 319 319 319 319 318 317 316 316 317 315 314 314 313 313 313 312 312 312 314 315 314 313 313 310 310 308 307 307
308 308 309 310 310 310 310 310 311 310 312 312 312 311 312 312 311 311 311 312 312 314 311 311 312 313 311 311 311 311 312 314 313 312 312 312 313 312 312 314 315 316 320 322 320 322 326 325 319 316 317 317 319 323 328 325 322 318 317 317 319 319 318 317 316 316 316 316 316 317 314 314 313 313 312 311 311 312 312 314 314 313 311 309 308 307 307
307 308 309 309 309 310 309 309 310 310 310 310 311 311 312 312 311 311 311 311 312 312 311 312 313 314 312 311 311 311 311 313 313 313 312 311 311 312 312 311 314 316 320 320 322 324 325 321 318 316 316 317 320 325 324 324 317 315 316 317 317 317 317 316 316 316 315 316 317 315 313 313 313 313 312 311 310 310 311 311 313 312 310 309 308 307 307
308 308 308 309 309 309 309 309 310 310 310 310 312 311 311 312 312 311 311 311 312 312 312 312 318 317 314 313 312 312 311 311 312 313 313 314 311 310 311 312 315 318 324 325 325 324 322 320 320 319 315 318 320 322 320 316 313 315 315 316 317 318 317 317 317 315 315 315 314 313 313 312 312 312 312 312 311 310 309 309 309 310 310 309 308 307 306
309 308 307 308 308 309 309 309 309 309 309 310 310 310 311 311 311 312 312 312 312 311 312 312 313 314 313 311 311 310 310 311 311 312 313 313 314 314 313 312 314 316 324 323 321 319 319 317 316 315 319 318 318 321 317 309 310 311 313 315 318 317 317 317 316 315 314 313 313 312 311 311 311 310 310 310 310 310 310 309 308 309 309 309 308 307 307
308 307 307 308 309 310 308 308 309 309 309 310 310 310 310 310 310 310 312 312 312 313 313 312 311 311 312 311 312 311 312 311 312 311 310 312 314 312 314 314 314 319 324 323 320 319 318 317 315 316 321 321 319 317 310 307 308 310 311 313 313 313 314 314 314 312 312 313 312 311 310 311 311 309 309 309 309 308 308 308 308 308 308 309 309 308 308
306 306 307 308 309 308 307 307 308 308 309 309 308 309 311 310 310 310 310 311 312 314 315 312 311 312 311 311 311 311 312 312 312 312 311 312 312 313 314 320 321 320 323 324 319 318 316 315 316 320 323 323 320 315 306 306 307 308 309 309 309 309 309 308 308 309 309 308 308 307 308 309 309 309 308 308 308 308 307 308 308 308 308 308 308 308 308
306 306 306 312 308 306 306 307 308 308 307 307 306 308 310 309 310 311 311 311 311 311 311 311 311 311 310 310 311 312 311 311 310 311 313 314 313 314 315 321 321 323 323 324 319 317 315 317 317 319 323 325 319 310 305 310 310 309 307 307 308 310 308 308 309 307 307 306 306 306 307 305 305 305 304 304 305 307 306 308 307 307 306 306 307 307 307
305 306 306 305 306 306 307 307 309 308 305 305 305 305 308 309 310 310 310 310 310 310 310 310 310 311 310 310 310 310 312 312 313 311 311 312 315 318 322 324 325 325 324 320 317 316 315 317 319 319 322 325 319 305 306 306 306 305 305 305 307 308 307 307 306 305 306 305 306 308 308 305 303 302 305 306 305 306 306 306 306 307 307 306 306 307 307
306 305 305 305 306 306 307 306 306 305 306 305 304 306 307 307 308 309 310 309 309 308 309 309 310 310 310 310 310 312 313 312 311 312 310 310 311 313 315 314 319 324 323 321 320 321 318 318 318 318 320 323 318 305 306 305 304 304 304 305 306 304 305 305 304 303 304 304 307 306 306 306 304 302 303 303 303 304 304 305 305 305 305 305 306 305 306
305 305 306 307 306 307 306 307 308 310 308 306 307 306 307 308 309 309 308 309 308 309 310 311 310 309 309 313 314 313 314 315 313 312 310 312 314 313 313 319 321 324 321 317 317 317 318 314 315 316 319 324 307 305 304 304 306 307 306 305 304 304 304 303 303 302 302 303 305 305 303 302 301 301 302 303 304 303 304 305 305 305 305 305 305 305 305
306 307 306 304 304 305 305 305 306 306 305 308 307 307 307 308 308 308 309 309 309 314 311 310 309 308 307 307 308 309 309 311 314 315 314 314 313 313 315 316 317 320 320 315 314 314 316 317 315 317 319 315 305 305 304 305 305 307 306 307 307 304 305 303 303 302 302 305 304 304 304 303 301 301 303 302 302 303 304 305 304 304 303 304 305 304 304
309 308 306 308 307 309 306 305 306 306 306 306 307 308 311 310 310 312 311 312 311 311 310 310 309 309 308 307 308 308 309 309 312 318 317 315 316 319 321 318 317 318 319 318 316 314 312 312 313 315 316 315 307 306 306 306 306 307 309 307 307 306 306 304 304 303 302 303 303 303 304 304 303 302 303 303 304 304 305 305 305 305 305 304 305 305 304
308 307 305 305 304 304 305 306 306 307 308 309 309 309 310 310 310 310 309 315 313 310 310 308 309 309 308 307 310 310 310 311 313 313 317 320 318 315 316 320 318 317 317 316 314 312 311 311 313 315 315 312 309 307 309 310 308 307 308 310 309 307 308 306 306 305 304 304 304 303 304 304 303 303 303 303 304 304 305 305 305 305 304 304 304 304 303
Wind_Speed
15 14 14 9 6 7 7 8 8 8 8 8 12 10 10 11 10 12 8 8 7 8 10 13 14 12 13 14 16 17 12 4 4 6 8 10 10 8 9 10 9 9 10 10 11 11 12 11 11 12 11 11 10 9 9 8 10 12 11 12 13 13 13 12 5 10 16 10 6 5 5 6 7 8 8 10 9 7 7 8 7 8 6 7 7 7 7
13 13 11 6 10 6 5 6 7 7 8 11 13 11 8 13 9 12 12 13 16 12 11 12 14 13 11 7 2 2 5 11 12 9 10 13 12 13 13 11 11 10 11 11 11 11 10 12 12 12 11 11 11 11 11 11 12 11 11 13 13 10 5 8 13 14 13 11 10 9 9 9 9 9 9 10 8 8 9 9 7 6 7 7 7 7 7
10 13 11 8 8 10 11 12 10 9 6 8 11 8 2 1 6 5 0 8 12 9 8 10 3 2 3 4 7 11 8 6 9 11 12 13 14 12 9 8 9 10 10 9 7 8 10 11 13 12 12 11 10 11 11 11 12 12 12 11 6 10 15 14 13 13 14 13 14 11 9 9 9 10 11 10 9 9 7 5 7 7 6 7 7 6 7
5 5 8 11 7 8 10 13 12 9 6 5 4 5 7 7 8 7 3 4 10 11 5 1 3 5 7 9 10 9 8 9 9 12 14 13 10 8 10 10 9 8 8 8 10 12 12 12 11 10 10 10 10 12 12 12 12 10 9 8 13 15 15 14 15 16 14 14 11 5 7 10 10 11 12 10 10 10 9 8 7 6 7 7 7 7 7
5 8 6 10 5 2 5 10 12 11 9 7 4 3 4 9 8 8 7 10 11 14 6 6 4 7 10 9 7 6 5 8 15 17 13 9 8 10 10 10 11 11 11 12 13 12 9 10 11 13 12 10 12 13 13 12 8 9 9 12 14 13 12 13 15 14 14 13 9 8 9 9 9 9 10 9 10 9 10 8 4 7 9 7 8 7 7
4 8 4 3 4 8 8 8 6 10 11 11 9 7 10 8 9 8 9 10 4 2 6 12 11 8 10 15 15 11 13 14 10 5 7 10 11 10 9 11 12 12 8 7 7 7 7 8 9 6 8 12 12 8 6 7 10 9 11 12 12 12 12 12 12 14 14 10 11 14 11 9 9 12 9 10 10 8 5 4 7 8 8 9 8 8 8
6 4 4 3 8 8 6 3 4 8 10 14 16 5 1 1 4 5 8 9 7 10 11 16 17 13 3 2 4 5 7 7 8 12 10 9 9 11 10 9 8 7 8 6 5 7 8 8 6 6 7 8 5 6 8 8 7 10 11 12 12 13 13 14 16 16 16 17 18 13 12 14 12 10 9 8 7 6 7 8 8 10 9 9 8 9 9
1 1 3 3 6 4 2 1 3 2 5 4 11 3 1 2 3 5 6 9 8 7 8 3 2 5 4 3 3 3 6 10 12 11 11 11 10 10 10 10 9 9 9 10 9 6 5 7 8 9 9 7 8 7 8 9 10 11 13 13 13 14 15 15 15 16 17 17 17 14 12 9 9 9 8 9 10 6 6 7 7 7 7 7 9 10 10
3 2 2 6 3 2 0 1 2 2 2 3 5 7 2 2 1 5 3 5 4 4 3 2 3 6 6 4 1 3 2 3 2 5 8 12 12 10 7 7 7 5 6 7 8 6 7 7 8 9 7 8 8 8 10 10 12 13 14 14 14 15 17 18 18 18 17 17 16 13 10 10 11 11 11 11 8 6 7 8 8 8 9 9 7 8 9
3 2 1 1 1 3 6 3 0 1 1 2 4 3 3 2 2 1 2 3 4 4 4 5 5 6 9 3 4 4 4 2 1 3 4 2 3 3 5 4 4 4 4 4 5 7 8 7 7 6 7 8 8 9 10 11 13 13 14 15 17 19 20 17 14 15 14 13 11 8 7 11 12 11 8 5 7 7 9 9 9 10 8 8 8 8 9
2 1 3 4 5 5 6 1 2 1 1 1 6 3 3 1 4 4 2 4 3 2 3 7 8 8 5 5 1 2 3 3 3 6 6 6 6 5 6 6 6 3 3 5 6 6 6 7 6 6 7 8 9 9 10 11 12 14 15 16 17 18 14 12 12 12 11 12 13 14 15 13 12 11 9 9 6 6 8 8 9 8 7 8 8 8 9
2 3 3 3 3 1 2 4 4 4 3 2 4 5 4 1 7 2 2 3 6 5 6 4 6 4 10 6 3 1 2 4 4 4 7 8 8 8 6 7 9 8 6 7 6 7 7 6 5 7 8 9 9 10 9 10 12 13 15 16 15 9 9 12 12 12 13 15 15 14 15 12 7 8 8 4 6 8 8 8 8 7 7 7 9 9 7
3 2 2 3 2 3 2 5 11 10 2 3 7 8 5 2 3 2 5 1 4 8 7 3 6 1 3 4 1 3 4 9 9 7 7 7 7 8 7 8 8 8 6 6 5 4 3 5 6 7 8 8 8 8 9 10 13 13 10 8 9 9 9 10 11 13 13 14 16 14 10 9 10 11 9 7 7 8 9 8 8 7 8 7 7 8 6
5 2 2 3 3 3 5 11 11 6 2 3 6 3 2 4 1 5 8 7 5 11 11 10 7 4 2 3 6 12 12 11 7 8 7 9 11 8 7 8 8 8 7 6 6 6 4 6 6 7 7 7 7 8 8 12 9 5 8 9 9 9 10 11 11 11 11 10 9 8 9 9 9 11 8 7 8 9 8 8 8 8 7 6 6 7 5
1 1 1 1 4 2 11 19 8 4 1 3 2 3 3 2 1 7 7 6 3 9 11 10 10 9 8 10 12 12 11 12 11 10 11 10 9 8 8 9 7 8 7 6 5 4 4 5 5 6 7 7 7 7 8 5 5 7 8 9 10 9 9 9 10 10 9 10 9 7 8 9 9 10 7 7 8 8 8 7 7 7 7 6 6 6 5
1 3 2 1 1 8 12 7 3 4 1 4 5 7 6 2 2 6 7 7 4 7 11 11 11 11 11 10 10 12 11 11 10 10 10 8 8 9 8 7 6 8 7 5 4 3 3 2 2 3 5 5 5 5 5 5 6 7 8 8 9 9 8 8 8 9 9 10 9 8 9 9 9 10 8 8 7 7 7 7 7 6 5 5 5 5 5
3 2 4 4 2 3 7 7 6 3 5 6 4 3 6 7 6 3 9 7 7 9 12 13 13 14 11 10 10 12 8 10 10 10 9 8 8 7 7 7 6 5 6 6 4 3 2 1 1 2 2 5 6 7 5 6 8 8 8 9 9 9 8 8 8 8 7 8 8 9 9 9 9 8 8 8 7 6 6 6 6 6 5 5 5 4 3
3 3 5 6 3 3 8 9 5 5 7 7 5 5 10 7 6 6 7 5 5 6 7 13 10 9 8 11 10 10 10 10 8 8 8 8 8 7 7 7 7 6 5 5 4 4 2 2 2 2 3 5 6 6 6 6 7 8 8 9 9 9 8 8 7 7 7 7 7 7 7 7 9 8 9 9 8 7 6 6 6 5 4 3 2 2 3
6 1 2 3 3 3 4 3 6 8 6 5 3 6 7 5 6 9 7 7 6 5 8 11 10 8 8 10 8 7 7 9 8 8 7 6 7 7 7 4 4 4 4 5 5 5 4 2 3 4 4 4 5 7 7 7 7 8 8 8 8 8 8 7 7 7 8 7 6 5 6 6 6 7 6 7 7 6 5 5 4 3 1 1 1 1 3
6 10 7 5 5 1 1 3 4 6 6 6 5 4 4 3 6 8 7 6 8 5 8 7 11 7 6 9 7 5 5 5 5 6 5 5 5 4 5 2 3 3 3 5 5 4 4 3 4 5 5 5 5 6 6 7 8 8 8 9 9 8 7 6 6 6 6 8 7 5 5 5 5 3 2 4 5 4 4 4 4 2 2 1 1 2 2
1 6 8 6 4 2 3 3 4 4 3 3 5 5 6 6 10 10 11 10 9 9 7 6 6 8 5 4 4 7 4 4 3 4 4 4 4 3 5 5 7 7 4 3 2 2 2 3 4 5 5 5 5 7 6 5 6 7 7 6 5 5 5 5 4 3 4 3 3 4 5 6 6 5 3 1 3 6 6 4 2 2 2 1 1 1 2
9 8 8 10 9 6 2 2 5 4 4 3 6 6 9 9 9 9 13 11 9 10 9 8 8 7 4 5 5 8 7 6 5 3 2 2 4 4 2 2 3 3 2 1 1 2 2 3 4 4 5 5 4 4 4 4 5 5 5 5 5 5 5 5 4 4 4 5 6 6 5 5 4 4 8 7 6 3 4 6 8 6 3 1 1 0 0
2 3 4 1 1 8 5 4 4 2 5 3 9 9 8 8 7 8 11 13 13 13 12 10 10 8 7 5 3 6 6 4 1 2 1 1 1 2 3 5 4 3 2 1 2 2 2 3 4 5 5 5 5 5 5 5 6 7 7 6 5 4 5 4 4 4 5 4 5 5 7 7 6 4 3 5 9 10 7 6 6 7 6 3 1 1 1
4 4 8 4 4 7 8 10 10 9 8 6 11 7 6 7 8 11 13 11 11 10 11 12 10 9 10 9 9 8 6 6 6 5 4 5 5 5 6 6 3 1 1 2 3 4 4 5 5 5 6 5 6 6 5 5 5 7 8 8 7 6 5 2 6 7 6 5 6 4 4 4 4 5 4 3 3 6 8 8 9 8 7 6 4 0 3
3 5 4 7 11 11 10 11 10 11 11 9 8 7 7 10 11 12 13 10 9 10 10 10 9 7 9 10 10 9 6 5 5 6 7 8 7 6 4 3 2 0 1 3 4 5 6 6 6 6 6 6 6 7 8 8 9 10 10 9 9 8 7 1 4 4 4 4 4 5 6 5 5 4 4 4 4 2 5 9 9 8 7 6 6 5 4
8 3 4 7 9 6 4 11 15 13 12 12 10 9 10 10 9 11 11 9 9 9 9 8 9 9 10 11 10 9 10 10 8 8 8 7 4 2 0 1 2 3 4 5 5 6 6 7 7 7 7 7 7 8 8 8 8 8 8 9 10 9 8 8 6 5 4 4 4 4 5 5 5 4 3 3 2 3 3 2 3 4 5 5 5 6 6
5 1 6 12 14 13 11 10 6 8 10 10 10 8 8 8 8 7 7 8 8 8 8 7 6 7 10 9 8 8 8 6 7 8 6 4 3 3 3 3 4 5 6 6 6 6 8 7 7 7 8 8 7 7 8 8 7 5 5 4 5 6 9 5 5 5 5 5 5 5 5 5 4 3 3 3 3 3 4 5 4 4 3 1 0 1 2
2 2 8 10 5 5 4 6 10 9 6 3 1 1 2 1 5 11 11 11 11 9 9 9 10 11 11 9 10 10 10 10 8 7 8 8 6 4 3 3 4 5 5 6 6 6 7 7 7 7 7 6 4 4 2 3 3 5 5 5 5 5 4 6 5 4 4 5 5 5 5 4 3 3 3 4 3 3 2 2 3 3 2 1 2 2 3
9 9 5 12 11 8 4 2 2 3 2 1 2 2 2 8 9 9 9 8 6 7 9 9 7 7 7 6 7 8 7 8 8 9 7 6 6 6 3 3 4 5 5 5 5 5 6 6 5 4 3 2 3 3 3 5 5 5 6 6 6 5 5 5 5 5 5 5 4 4 4 4 5 5 4 4 4 4 3 3 3 2 2 3 3 2 2
5 4 4 5 4 5 6 5 6 6 6 4 7 7 6 6 8 7 6 6 7 8 5 5 8 9 7 8 7 6 6 6 5 5 6 6 6 5 3 2 3 2 2 4 6 5 5 3 2 4 3 1 1 0 4 5 5 6 6 6 6 6 6 6 6 6 6 5 5 6 6 6 6 6 6 5 5 4 4 4 4 4 3 3 3 2 3
6 5 5 4 4 3 9 8 6 6 4 3 4 6 5 5 7 6 6 4 5 6 5 5 6 7 7 6 5 4 4 4 5 5 5 5 5 5 2 2 4 5 6 6 5 5 4 4 3 3 2 3 4 3 4 6 7 7 6 6 6 9 11 10 6 5 5 6 6 6 5 5 5 6 5 5 4 4 4 5 4 4 3 3 2 2 2
7 3 4 4 4 7 6 3 4 4 4 3 6 7 6 7 7 7 6 7 5 5 5 8 8 7 6 5 5 4 4 5 5 5 5 5 4 3 4 2 4 4 3 3 5 7 7 6 5 4 2 4 5 5 5 6 7 8 7 6 6 5 6 9 6 6 5 5 6 5 5 5 4 4 5 5 5 5 5 4 5 5 3 3 3 3 3
5 5 5 4 5 7 6 4 6 6 5 6 4 3 5 5 5 5 4 3 5 4 5 4 5 5 6 6 5 5 5 5 4 4 6 7 7 5 5 4 3 3 3 5 6 7 8 9 8 5 5 5 6 7 5 4 4 6 6 6 6 5 4 5 6 6 5 5 5 5 4 4 4 4 5 5 4 4 5 5 4 4 4 3 2 2 3
4 7 5 2 3 6 6 3 2 4 3 4 4 4 5 5 5 4 4 4 4 6 5 5 5 5 5 4 4 4 4 4 5 6 7 8 9 8 6 3 1 2 3 4 4 4 4 4 5 6 5 6 6 6 5 5 5 4 5 5 6 6 6 5 5 4 4 5 4 5 4 4 4 4 4 5 5 5 5 5 5 5 4 3 3 3 3
5 4 3 3 2 2 3 5 4 3 5 5 5 5 4 4 5 4 3 4 5 4 4 5 5 5 4 4 5 5 5 5 5 6 7 7 7 8 6 2 2 3 3 1 1 1 2 4 5 6 6 5 5 4 4 6 6 6 6 5 6 5 5 5 5 5 5 5 5 4 3 3 3 4 5 5 6 5 5 5 5 4 4 4 3 3 4
5 6 5 5 4 4 5 4 3 5 5 4 3 3 3 3 3 4 4 4 3 3 4 5 5 5 5 7 7 7 6 6 6 6 7 7 7 6 4 3 3 4 4 5 5 5 4 1 4 7 5 5 5 4 3 4 4 4 4 5 5 4 5 4 4 5 5 5 5 4 4 4 5 5 5 5 5 5 5 5 5 5 5 4 4 4 3
5 5 5 5 4 5 5 4 3 4 4 4 3 4 4 3 3 1 1 2 4 4 5 4 5 6 6 5 3 3 4 5 5 5 6 6 5 3 3 4 4 3 3 3 1 3 4 4 2 5 4 5 5 5 5 7 5 6 6 5 5 5 5 5 5 5 5 4 4 4 5 4 4 4 5 5 5 5 5 5 5 4 4 4 4 4 4
6 6 6 5 4 5 5 4 4 4 4 5 4 4 3 3 3 3 3 4 5 5 5 5 4 3 3 5 6 7 6 6 5 5 4 4 3 4 4 4 3 3 2 1 2 4 4 6 10 7 5 1 5 6 7 10 9 7 6 6 5 5 5 5 5 4 4 4 4 5 5 4 4 3 3 3 3 4 3 3 4 4 3 4 4 4 4
7 6 5 5 5 6 5 6 6 4 5 5 4 4 4 4 3 4 5 5 5 5 6 5 4 4 5 6 6 5 5 5 4 4 4 4 3 4 3 3 2 2 3 1 4 4 4 6 6 5 3 1 1 3 7 11 10 6 5 5 5 5 4 5 5 4 4 5 5 4 4 4 3 4 4 3 3 3 4 4 4 4 4 4 4 4 4
4 5 4 5 6 5 6 6 5 5 4 3 4 4 4 5 4 4 4 5 5 5 5 5 6 6 6 6 5 5 4 4 5 5 5 4 4 3 3 4 4 4 1 5 3 3 6 8 6 4 4 2 2 3 4 7 7 5 5 5 5 4 4 4 5 4 4 4 5 5 4 4 3 3 3 3 3 4 4 4 5 4 4 4 4 4 5
4 4 4 5 5 5 5 5 5 4 4 5 5 4 4 4 4 5 6 6 6 5 5 5 6 6 6 6 5 5 5 4 4 4 4 3 4 4 3 4 4 3 3 4 3 4 4 4 4 4 3 2 3 4 4 6 5 4 5 5 5 5 4 4 4 4 4 4 4 4 4 4 4 3 3 3 3 3 4 4 4 5 4 5 5 5 5
5 5 6 6 5 5 4 4 4 6 6 4 4 4 5 5 5 5 5 5 6 6 6 6 7 6 5 5 5 5 6 5 5 4 3 3 2 2 4 2 2 2 5 6 6 6 4 3 2 3 4 3 4 6 6 4 5 5 5 5 4 4 4 4 3 4 3 3 4 4 4 4 4 4 3 3 3 4 4 4 3 4 4 4 5 5 5
5 6 5 5 5 5 5 4 4 4 4 4 4 4 3 3 3 4 4 4 4 5 5 5 6 6 5 5 5 6 5 5 4 5 5 3 3 3 2 1 1 2 4 3 3 4 3 3 3 3 4 4 5 9 8 5 5 5 5 4 4 4 4 4 4 4 4 4 4 4 4 4 4 3 3 3 4 4 4 4 5 5 4 5 5 5 6
4 3 3 4 4 3 3 4 4 5 6 6 5 4 3 3 3 4 4 5 5 5 5 5 5 5 6 5 5 5 6 6 5 4 5 6 6 3 2 2 2 3 3 2 2 2 3 2 3 4 7 9 10 9 5 4 5 4 4 4 5 4 4 4 4 4 4 4 4 4 3 3 3 4 4 4 4 4 4 4 4 4 5 5 5 5 5
4 3 3 3 3 3 4 4 4 4 4 4 4 3 3 4 5 4 4 5 5 5 5 5 5 5 5 5 5 5 4 4 3 3 4 5 5 4 3 2 3 3 4 3 2 2 2 3 3 6 7 8 9 8 5 4 4 4 4 4 4 5 5 5 5 5 5 4 4 4 3 4 4 4 4 4 4 4 4 4 5 4 5 5 5 6 6
5 5 3 4 3 3 3 3 3 2 3 4 5 4 3 4 5 5 4 5 5 5 5 5 5 5 5 5 5 6 6 5 4 2 3 3 3 4 4 5 3 3 6 6 3 3 3 5 6 7 6 6 9 6 4 4 4 4 4 4 4 4 4 4 4 5 5 5 4 4 4 4 3 4 4 4 4 4 4 4 4 4 4 5 5 5 5
4 4 4 3 4 4 4 3 3 3 4 5 5 6 6 6 6 6 5 5 4 5 5 5 5 5 5 4 4 4 5 5 6 3 3 4 4 4 5 4 4 5 4 3 3 3 4 4 6 7 5 6 8 5 5 5 5 5 5 4 4 4 4 5 4 4 4 4 4 4 4 4 4 4 4 3 4 4 4 4 5 5 4 4 4 5 5
4 4 4 4 4 5 5 4 4 4 5 4 3 5 5 6 6 7 6 4 4 5 5 5 5 5 4 4 5 5 5 4 3 5 2 2 3 2 3 3 0 6 6 5 6 5 6 6 6 6 6 9 6 5 5 5 5 5 5 5 5 5 5 5 4 4 4 4 4 4 4 4 4 4 4 4 4 4 4 4 5 5 5 4 4 4 4
3 3 4 3 2 2 3 3 3 4 6 3 2 3 3 3 5 6 5 5 4 5 6 6 5 5 3 3 3 4 4 4 5 5 3 2 4 4 3 2 3 3 4 4 4 4 4 6 6 7 8 6 5 5 5 5 5 5 5 5 5 5 5 5 5 5 5 6 5 5 5 5 5 4 4 4 4 4 4 5 5 4 4 4 3 3 4
2 3 3 3 2 3 3 3 4 6 5 3 5 3 2 3 6 7 6 6 5 5 5 5 5 5 5 5 4 2 2 3 4 5 5 5 4 3 3 2 3 3 3 4 4 4 4 6 5 5 5 3 4 5 5 5 5 5 5 5 5 5 6 7 5 6 7 6 6 6 5 5 5 5 4 3 4 4 4 5 4 4 5 4 4 3 3
6 5 5 4 3 4 3 4 5 3 4 4 4 3 2 2 5 5 6 6 5 6 6 7 6 6 6 5 5 3 2 2 3 4 5 5 4 4 4 4 4 4 5 5 4 5 4 4 4 4 4 5 5 5 5 5 6 6 6 6 7 6 6 6 6 7 7 6 6 6 6 5 5 5 4 5 5 5 5 4 4 4 4 4 4 4 4
4 4 5 4 5 5 4 5 4 4 4 4 4 4 4 3 3 5 6 6 3 4 5 5 7 7 3 4 5 6 5 4 4 4 4 5 4 5 5 4 3 4 4 4 5 5 5 5 4 5 6 5 5 5 4 6 6 6 6 6 5 6 7 6 7 6 6 6 5 5 6 5 5 5 5 5 5 5 5 5 5 4 4 4 4 4 4
Wind_Direction
228 223 221 185 188 188 189 193 194 196 200 162 181 207 202 143 194 217 232 179 196 228 217 215 215 204 203 203 206 207 206 183 129 133 168 185 191 182 180 188 183 177 181 187 192 194 198 194 195 201 201 203 202 203 200 190 186 190 183 189 194 196 197 193 163 82 83 101 159 211 209 190 185 193 202 210 213 203 200 200 207 214 219 211 212 218 219
236 237 235 203 186 219 228 218 210 205 178 189 192 210 198 184 205 209 208 179 207 208 217 216 223 216 203 200 152 103 166 188 187 176 180 190 192 190 191 184 181 184 190 189 193 191 189 192 197 197 199 199 198 196 195 189 190 189 178 190 192 186 153 72 79 98 118 153 200 202 195 187 191 196 208 215 214 212 216 211 208 209 217 217 215 216 212
240 237 231 225 201 207 230 238 232 226 204 199 206 212 187 189 280 312 168 185 232 249 221 221 240 86 97 114 176 196 194 164 178 186 192 196 196 193 185 177 184 191 191 191 180 183 195 196 198 197 198 197 194 196 195 191 192 186 183 184 146 94 94 116 143 144 147 173 212 203 193 190 195 198 212 213 213 219 226 221 221 220 218 220 221 217 214
280 235 216 227 208 209 225 244 243 233 202 205 198 198 200 163 207 209 139 198 244 257 239 184 136 144 161 190 193 187 187 183 177 189 203 201 188 177 183 186 185 184 185 181 186 194 197 199 196 196 196 193 188 199 194 194 191 177 167 130 120 134 152 152 144 150 163 187 205 213 205 200 199 203 213 208 213 217 210 213 222 221 225 222 219 217 217
262 253 190 212 186 157 271 254 242 222 212 209 223 226 174 203 168 157 187 230 221 225 182 166 208 179 199 205 198 204 209 195 186 195 196 181 180 189 183 183 190 191 188 191 195 198 195 193 194 203 193 183 197 199 194 196 160 157 143 134 144 145 147 151 161 154 165 193 168 206 218 206 206 225 222 213 218 217 216 215 204 222 227 218 221 217 217
242 263 203 127 117 217 233 228 209 194 203 200 210 218 203 208 156 198 204 226 251 102 154 188 203 193 200 200 210 196 184 180 183 176 173 186 189 188 190 191 192 194 187 189 193 192 190 195 202 188 185 198 205 189 168 131 159 150 139 143 141 145 149 151 151 157 173 172 195 208 195 194 204 220 220 220 221 219 211 188 209 224 222 220 218 214 215
272 334 75 145 216 237 238 278 236 203 204 193 203 199 122 234 255 271 280 262 238 214 197 194 200 201 249 9 124 147 158 157 167 168 176 189 186 186 187 193 197 189 184 170 159 176 188 184 172 169 193 203 172 153 158 152 137 133 134 137 145 148 153 162 166 164 174 188 203 207 193 196 196 204 217 228 227 212 205 206 210 217 216 216 218 218 219
16 46 143 210 237 234 270 186 75 107 109 123 104 67 261 245 220 199 233 250 243 230 245 277 79 116 136 80 28 151 167 164 165 166 184 188 181 184 191 187 190 178 177 181 181 178 153 160 178 184 195 177 167 161 135 136 136 136 142 147 152 154 162 170 173 175 188 190 203 203 201 189 180 192 202 219 228 213 204 212 218 222 225 219 221 221 221
229 221 203 219 292 28 47 16 26 42 148 155 150 156 236 204 217 186 217 269 271 248 227 173 118 120 100 76 71 352 213 185 159 184 181 171 179 182 185 179 181 170 160 168 180 159 168 174 175 194 179 170 164 140 142 142 140 144 148 153 157 164 172 182 183 182 185 190 197 198 193 201 205 204 208 215 215 197 213 217 215 215 220 216 219 225 226
124 140 356 349 67 173 262 231 249 209 127 170 178 130 165 235 334 149 184 227 231 187 141 134 150 115 76 106 229 337 5 12 58 55 97 94 120 120 121 121 126 124 120 118 144 156 161 175 184 175 166 160 147 144 146 144 144 153 157 166 173 177 186 183 176 177 189 183 182 165 198 217 217 221 221 226 218 200 213 215 216 219 214 215 217 217 222
69 137 169 204 164 237 206 227 254 235 145 197 162 102 142 229 354 335 177 213 206 126 156 164 152 117 141 206 273 305 351 43 67 71 51 68 80 77 59 64 68 91 144 142 136 127 138 163 185 162 156 147 147 151 152 154 155 163 175 177 182 189 179 166 172 173 167 173 181 182 198 210 209 216 223 217 211 186 215 217 222 214 207 214 220 221 217
294 140 134 228 210 120 349 287 296 306 335 240 103 106 214 297 340 300 93 197 152 116 110 101 46 123 168 168 157 282 17 76 56 76 80 69 70 75 121 130 138 134 130 100 97 134 160 178 160 152 147 153 157 160 161 158 167 178 186 189 189 166 148 163 165 174 176 184 191 189 199 204 210 224 236 206 195 203 215 214 217 211 206 209 221 228 218
304 7 265 311 296 277 276 304 313 321 282 83 117 173 226 329 321 63 102 235 163 124 114 92 92 351 163 177 201 55 111 81 58 71 87 103 111 110 104 104 108 100 93 111 134 138 145 145 148 146 148 148 160 159 161 170 190 194 181 167 162 160 159 163 168 177 182 188 191 191 187 194 200 225 229 214 201 201 211 208 210 209 206 210 222 236 224
344 296 220 217 241 236 320 320 312 291 67 136 216 231 274 280 18 81 92 87 71 98 92 99 97 90 38 113 91 68 61 73 55 37 45 60 61 58 64 75 89 96 89 92 93 81 104 142 146 149 146 153 158 162 169 197 196 138 148 156 156 159 168 174 171 176 184 184 195 190 173 172 194 219 217 203 206 207 203 198 203 211 208 208 219 235 228
102 22 339 121 143 246 12 324 332 45 124 220 188 123 19 351 360 80 60 70 47 90 94 101 117 113 92 72 69 77 72 68 60 54 52 54 66 63 67 64 53 84 88 80 90 126 135 137 141 149 151 158 164 168 191 186 136 147 146 152 158 159 161 166 167 173 174 171 176 181 186 188 206 228 216 206 212 204 198 198 202 210 211 205 219 240 247
150 267 255 212 242 290 319 345 59 316 22 153 156 134 96 5 69 82 84 64 60 78 89 90 77 74 77 69 70 69 66 71 69 65 57 46 44 53 53 66 80 93 97 93 88 69 59 74 99 135 161 151 146 158 172 138 142 142 145 145 148 149 152 160 163 169 177 176 174 183 186 185 201 218 217 212 210 204 198 192 196 208 203 193 206 230 252
132 194 248 272 244 284 332 5 3 353 23 37 23 68 96 102 53 22 83 72 62 73 85 77 76 69 62 68 61 70 68 69 70 72 70 71 69 55 53 51 37 48 101 111 93 64 46 51 67 124 131 144 147 153 163 146 147 146 141 143 147 153 154 158 163 164 161 167 181 182 181 179 191 204 209 199 202 206 190 190 193 199 188 180 198 218 239
184 160 212 269 293 16 17 9 340 23 21 22 26 54 78 48 64 48 80 42 36 49 69 85 58 68 76 72 61 59 57 64 64 68 62 52 54 62 62 48 54 64 64 79 97 113 82 90 107 111 95 146 156 154 142 139 138 138 139 144 154 162 163 165 164 162 169 175 180 181 175 181 193 196 194 191 197 191 187 187 186 192 185 172 186 205 249
101 313 321 340 322 357 32 36 10 19 28 20 7 66 70 78 74 71 60 69 47 35 53 72 80 69 63 67 53 53 57 53 54 64 71 62 61 54 41 34 83 84 110 121 148 155 166 151 130 98 92 82 114 133 140 137 139 142 144 150 158 164 172 169 170 172 178 181 168 160 160 170 189 189 185 194 195 182 167 166 166 162 142 186 192 241 263
129 182 173 278 304 299 93 55 45 49 29 32 16 41 54 61 67 68 50 52 47 29 59 71 91 80 73 86 81 76 91 97 87 93 104 114 101 110 118 115 109 135 173 177 174 166 151 127 107 99 93 101 118 126 134 152 151 152 155 161 163 174 179 182 186 187 182 176 165 155 158 160 162 131 133 188 176 157 152 150 156 152 163 172 194 232 264
358 74 113 161 237 344 16 24 40 359 341 55 50 46 55 55 63 66 64 60 65 54 48 28 65 80 47 58 99 118 141 142 153 156 141 162 157 140 127 141 154 162 162 136 114 120 103 104 106 102 104 112 128 145 155 152 156 158 164 167 162 146 141 131 127 126 142 137 121 109 87 69 51 36 3 327 75 76 43 43 77 123 140 156 210 213 212
161 163 191 172 144 149 254 9 42 350 329 54 80 59 54 51 56 60 70 57 53 59 52 51 56 64 46 35 25 34 34 22 351 347 50 78 85 114 132 126 93 86 74 90 131 141 108 105 110 108 116 129 129 121 105 108 127 135 124 109 108 120 129 140 138 125 101 88 99 108 112 108 108 91 65 55 33 70 102 75 78 70 72 98 94 108 209
240 344 94 334 31 72 56 42 23 355 340 25 68 62 71 66 60 66 72 67 54 46 42 42 54 52 52 30 66 68 48 37 137 174 166 142 123 78 83 77 59 70 79 110 144 143 116 107 113 122 131 140 132 128 122 126 132 132 116 97 91 100 92 77 109 99 121 125 130 135 146 150 152 147 131 63 58 61 73 80 75 78 77 66 356 250 226
22 16 59 22 64 83 64 45 41 34 14 31 62 36 39 69 75 72 68 61 69 58 50 45 41 50 53 45 56 47 36 23 20 21 40 46 45 37 42 46 40 81 148 151 162 153 141 138 139 138 143 151 151 143 142 123 100 107 113 112 111 109 119 143 160 155 150 149 142 149 126 134 145 155 150 135 98 65 63 63 65 65 64 57 51 311 222
37 345 56 81 90 82 77 70 57 46 34 27 46 41 38 46 46 56 64 58 51 62 60 51 40 40 58 53 52 47 39 23 16 24 27 31 31 40 42 55 69 211 188 161 156 153 152 152 148 151 149 167 168 156 148 142 137 123 117 113 106 92 92 348 296 108 128 153 160 144 153 159 163 163 164 164 162 149 53 59 67 66 64 76 87 88 101
104 18 35 71 71 80 100 64 44 38 41 40 37 23 23 46 53 56 55 59 54 49 55 46 42 30 44 47 43 35 40 31 23 28 24 21 23 31 55 173 172 164 161 159 165 164 161 160 158 160 165 177 166 156 147 148 147 135 140 142 150 161 182 179 171 155 154 168 165 165 159 160 162 161 157 132 128 110 113 90 58 62 67 67 83 92 75
76 50 13 36 44 37 37 78 99 48 39 44 50 41 16 350 34 51 56 54 57 52 50 44 44 40 39 36 40 40 42 24 31 31 25 14 320 251 223 209 178 173 164 162 168 174 170 166 165 171 177 181 172 166 159 157 154 149 152 141 126 149 169 162 172 166 162 157 161 150 155 160 154 147 142 143 116 139 163 152 158 150 148 111 68 285 155
360 141 116 106 80 79 74 65 77 82 74 77 27 64 116 283 44 48 42 36 33 34 39 34 35 37 38 23 31 23 22 24 19 7 12 8 343 288 246 208 176 172 173 168 169 177 174 176 175 177 187 192 175 177 117 97 129 132 122 131 144 154 161 160 157 158 152 154 154 155 161 151 140 130 134 146 163 171 143 146 144 136 124 115 111 170 152
23 22 43 112 129 139 142 173 127 101 109 107 127 113 93 67 53 52 45 39 32 39 33 21 33 46 48 35 37 32 23 14 10 360 347 338 346 333 271 201 182 178 169 170 170 182 182 185 181 177 211 314 295 252 186 156 150 149 144 147 141 135 130 127 135 128 125 119 116 119 112 122 130 136 140 148 151 153 150 132 133 131 125 139 155 139 157
34 35 37 69 98 145 144 112 92 72 54 39 62 55 55 80 72 57 53 37 36 46 16 13 26 22 22 30 26 23 20 3 342 330 332 340 346 353 332 140 92 66 127 165 187 193 194 179 114 151 199 307 334 166 142 137 138 143 141 145 143 138 125 134 121 125 123 130 126 131 136 146 152 151 153 155 155 149 149 161 159 156 164 178 189 175 168
53 29 30 42 64 54 69 64 52 54 57 54 76 73 56 71 79 66 46 38 38 39 17 30 27 18 13 5 348 344 349 355 350 343 338 336 344 352 353 171 162 191 203 205 184 153 128 121 136 162 183 148 130 161 136 122 123 124 123 132 140 145 142 133 124 121 118 126 132 132 133 136 144 147 149 154 154 151 164 171 168 169 186 177 183 180 158
107 92 80 49 51 71 69 73 81 74 73 77 65 56 47 58 58 49 35 29 21 15 17 21 15 359 338 325 327 332 346 346 343 342 338 336 346 0 335 289 257 262 236 176 160 161 163 162 188 203 110 123 135 133 124 138 146 140 137 127 112 98 117 123 114 119 124 129 134 134 137 135 133 141 152 162 176 175 167 175 172 177 174 170 190 183 151
191 117 80 71 65 64 65 42 78 64 59 60 51 47 45 43 51 45 40 21 15 19 25 9 348 329 323 322 326 334 338 323 315 337 341 337 329 341 333 287 255 248 200 186 187 187 181 178 194 176 164 138 137 134 139 191 160 113 109 109 113 126 121 115 118 117 116 123 127 133 136 141 150 158 168 159 163 181 189 180 174 173 174 173 159 138 149
117 110 136 138 137 115 108 79 76 85 58 49 54 48 50 38 39 35 31 24 17 11 6 340 317 309 307 313 316 326 338 352 356 342 327 321 318 321 319 320 6 104 141 149 152 174 191 174 151 150 143 136 125 119 136 139 98 84 95 113 124 118 114 113 123 121 116 118 124 131 139 149 155 157 159 158 164 166 171 169 168 171 157 139 129 139 129
96 103 110 106 82 98 102 117 113 93 83 68 44 36 37 34 32 25 31 38 14 336 309 309 313 319 325 334 352 354 360 356 333 318 311 309 307 312 317 333 30 77 68 35 121 153 110 129 148 147 138 126 122 123 125 119 128 137 153 138 118 111 116 125 131 127 129 138 138 139 141 147 157 153 150 145 156 163 167 167 165 162 145 152 151 160 174
69 70 62 57 61 77 85 92 108 120 116 112 107 87 63 48 45 26 17 353 315 320 330 335 341 342 2 11 8 7 357 347 333 321 312 315 320 325 353 27 43 51 52 37 22 17 7 319 166 146 127 121 100 99 104 104 97 102 105 106 106 107 120 124 123 119 129 134 138 142 148 145 136 144 144 146 150 153 157 161 166 172 173 165 162 172 171
53 71 68 65 57 63 64 57 66 100 106 101 83 64 58 46 42 328 315 3 16 10 8 5 13 18 15 12 10 28 34 11 333 319 315 317 329 4 39 58 52 54 66 79 56 57 61 342 287 113 86 106 118 123 140 129 109 116 118 117 130 140 133 133 133 133 132 127 127 130 131 121 122 133 145 145 149 157 161 163 168 169 166 163 170 179 180
37 45 49 45 41 50 47 38 41 60 61 57 44 49 46 29 14 9 15 17 22 12 13 22 19 11 32 40 42 40 28 15 353 344 339 350 17 52 44 47 54 52 64 191 217 141 152 109 73 25 325 54 129 138 146 140 133 125 129 137 140 138 139 136 132 122 127 128 131 136 134 125 138 130 135 139 151 157 164 168 172 166 162 168 175 185 191
38 32 37 33 41 39 35 32 35 39 42 48 34 35 23 22 16 16 18 16 8 10 14 7 357 27 37 38 35 24 14 358 357 0 1 1 17 73 48 27 311 260 267 234 136 135 117 108 112 134 129 348 277 171 147 143 133 120 124 125 126 133 132 134 129 133 136 138 131 125 128 139 147 147 147 158 161 167 179 184 181 173 168 172 176 192 194
52 47 38 39 41 31 36 29 26 23 21 32 44 30 358 16 18 18 12 6 3 7 4 359 11 15 12 19 20 13 354 354 360 1 1 3 27 32 26 18 3 325 247 126 90 108 140 136 116 108 120 161 249 135 124 129 126 118 119 117 126 123 122 124 129 130 139 142 150 149 142 149 152 162 150 163 172 184 185 189 191 186 184 181 190 194 196
46 43 41 48 40 40 39 31 20 4 18 20 22 19 19 23 6 22 13 351 333 354 359 11 8 6 8 2 351 334 332 3 16 15 343 357 32 25 48 25 333 339 58 90 71 104 129 113 115 117 101 123 130 112 102 125 110 104 113 119 118 129 133 139 150 149 153 157 158 151 158 159 159 172 177 181 190 200 200 200 193 195 185 186 194 197 205
13 26 32 34 31 28 22 21 16 20 13 15 16 17 11 15 29 14 339 336 340 355 0 356 1 14 3 357 340 341 348 352 349 344 346 339 306 24 32 4 317 311 122 116 133 133 120 129 132 118 128 133 124 137 126 113 125 131 137 144 144 138 140 147 150 147 144 139 140 140 149 157 172 182 184 195 198 207 209 213 219 209 205 197 196 198 199
10 19 15 16 14 15 15 14 18 9 357 6 12 3 348 354 17 6 349 347 356 358 356 354 348 354 356 357 350 349 340 336 346 347 337 320 246 227 207 240 270 275 130 112 111 97 105 81 114 130 159 149 153 142 127 121 131 138 142 145 144 151 157 161 153 143 148 160 166 173 171 175 177 185 189 205 217 214 212 214 220 226 219 212 207 200 204
356 6 4 5 357 349 0 13 8 12 12 349 343 337 345 355 10 354 339 336 339 345 349 341 345 341 336 338 349 355 343 344 344 346 357 347 359 343 264 232 244 262 209 114 120 128 132 140 146 194 186 168 148 126 119 130 121 127 134 131 136 136 138 139 143 146 165 174 183 190 184 186 184 192 202 212 217 219 215 220 225 227 230 225 222 216 212
351 347 339 325 326 348 359 2 3 347 315 304 315 342 4 358 343 345 351 340 334 331 333 335 333 328 326 329 325 315 310 303 299 332 3 359 360 346 316 273 226 222 243 201 158 206 153 170 201 226 201 169 148 129 124 130 137 133 131 133 139 139 141 140 151 157 157 162 172 172 169 179 191 186 196 215 221 225 228 221 229 222 223 228 223 219 214
345 335 332 331 331 319 296 286 293 323 356 355 347 346 357 356 342 336 344 344 327 318 308 312 308 303 301 304 308 316 320 318 303 246 224 220 246 273 292 308 263 218 206 199 145 208 216 205 207 237 220 186 153 132 140 151 146 140 136 145 150 150 153 154 153 159 166 163 166 171 175 177 180 197 199 205 208 214 229 231 237 234 223 227 229 226 225
332 329 327 313 290 284 299 325 331 348 8 0 1 339 334 346 340 331 326 325 310 303 308 304 291 284 275 267 267 291 310 323 321 286 247 264 270 277 287 285 228 215 170 168 212 214 206 211 214 223 229 205 149 145 161 158 160 162 164 162 166 169 164 172 171 176 178 178 180 186 188 184 194 201 200 208 212 224 234 241 250 250 237 228 232 233 229
327 321 308 306 304 321 348 351 354 338 324 309 296 308 321 327 326 319 319 326 313 305 289 274 262 266 261 254 245 237 225 224 278 299 266 256 268 274 327 26 161 163 179 222 222 218 208 217 222 223 221 215 168 166 175 171 166 172 175 180 174 180 183 183 187 190 190 197 197 193 198 205 205 200 208 212 227 234 242 245 259 271 265 247 236 226 225
309 294 296 305 301 317 319 310 303 303 292 301 330 307 305 312 311 311 314 329 337 326 320 314 305 292 273 249 251 242 232 209 196 235 267 359 326 318 321 318 315 208 180 194 214 236 228 229 234 232 235 213 165 183 178 185 182 187 186 189 192 193 189 194 199 192 191 196 198 196 204 207 209 206 218 222 232 241 241 250 253 255 268 265 254 234 222
299 314 337 325 292 265 245 252 277 263 268 304 299 294 290 333 341 317 323 325 308 299 293 291 293 296 297 306 292 260 279 261 255 256 267 276 274 263 266 241 240 248 221 212 232 238 253 238 233 231 232 181 176 188 185 193 195 200 199 200 196 200 203 204 203 199 198 198 195 200 204 207 212 214 212 221 236 237 235 238 242 245 246 252 251 248 235
341 343 324 309 286 269 246 226 240 264 283 282 279 280 290 305 286 287 299 303 314 316 309 310 308 298 303 297 290 285 242 232 246 256 260 272 273 273 255 227 226 229 225 221 224 231 231 235 230 228 222 197 190 194 194 199 203 207 207 207 207 203 201 199 192 190 200 200 201 201 203 208 209 210 213 218 220 229 228 228 233 232 225 230 233 233 233
302 291 287 285 284 283 266 259 257 254 255 262 265 273 264 250 267 296 305 305 306 291 290 307 307 303 285 275 295 297 286 265 246 243 248 251 252 251 276 284 268 247 241 239 239 237 232 226 226 225 220 213 207 208 215 213 210 212 214 212 211 208 206 202 197 199 205 204 203 204 211 211 203 207 216 216 215 216 218 217 220 226 225 230 231 235 233